Weather in Yerkovtsy

Russia / Amur Oblast     50°28′37″N   128°25′29″E
temp.,
°C
wind,
m/s
gust,
m/s
humid.,
%
clouds,
%
prec.,
mm/h
press.,
hPa
HPBL,
m
25 june, sat
sat2500:00+17ese379599 0.2 991140
03:00+16e22925 0.2 99231
06:00+17ene258977 0.0 993154
09:00+21n45753 0.0 994644
12:00+24nne566719 1.2 9941177
15:00+24ne57677 1.6 9941121
18:00+23ne26722 0.6 995535
21:00+19e22825 1.0 99716
26 june, sun
sun2600:00+18s118596 0.0 99911
03:00+16ssw22914 0.0 100013
06:00+17s239131 0.1 100297
09:00+20s1282100 0.2 1003453
12:00+24sse117038 0.0 1003966
15:00+24se116614 1.7 10031097
18:00+23ese11714 5.6 1004126
21:00+19se22850 6.6 100515
27 june, mon
mon2700:00+17se35940 0.0 100580
03:00+16sse34960 0.0 100676
06:00+16se369554 0.0 1006173
09:00+20sse448499 0.0 1006431
12:00+23sse4473100 0.0 1005916
15:00+25s4568100 0.1 10041320
18:00+24sse3577100 0.0 1002290
21:00+20s3789100 1.7 1003124
28 june, tue
tue2800:00+19sse3588100 1.1 100286
03:00+17se379817 2.2 1001158
06:00+18se389727 0.1 1001276
09:00+20sse4688100 0.1 1000545
12:00+23sse457695 0.1 999920
15:00+24se447312 0.6 997850
18:00+22ese347774 0.4 997491
21:00+19se23918 1.0 99836
29 june, wed
wed2900:00+16sse3597100 3.7 999101
03:00+16ssw229545 4.3 99929
06:00+17w129288 0.9 100072
09:00+18wnw2391100 0.9 1000192
12:00+20nnw2286100 0.2 1001218
15:00+24nne226822 0.3 1000741
18:00+25wnw116819 0.3 1000647
21:00+18ene46939 2.5 1003102